QARMAN (45263 NORAD) Tracking and Keplerian Element Data

This shows tracking and keplerian element data for the satellite.

Feedback or suggestion? Click here.




ElementValue
Catalog45263
NameQARMAN
Epoch Orbit3851
Epoch Day298.09596658
Epoch Year2020
RAAN66.8684
Inclination51.6412
Eccentricity0.0006933
Argument of Perigee112.7602
Mean Anonmoly247.4122
Mean Motion15.53084169
Decay Rate0.00016552
L11 45263U 98067RG 20298.09596658 .00016552 00000-0 26642-3 0 9991
L22 45263 51.6412 66.8684 0006933 112.7602 247.4122 15.53084169 38510

Live tracking and technical data element details for QARMAN (NORAD 45263). QARMAN can be tracked NOW for your location showing map with azimuth and elevation plus other details from your city location.

Track the satellite on the map from your city or location and see movement details for azimuth, elevation, latitude, longitude, range, height, and movement on the map or in text.







IsCatalogInMostPopularTable: catalog: 45263, numindb: 66
Update: records affected: 1



GetName: 45263 QARMAN

Hit Count: updated at: Sun, 25 Oct 2020 08:16:04 GMT